Date String (YYYY-MM-DD hh:mm:ss) UTC,Instrument flags,Ambient pressure (hPa),Sample flow (lpm),Bypass flow (lpm),Sample temperature (°C),Ambient temperature (°C),ASC tube jacket temperature (°C),LED temperature (°C),Box temperature (°C),Sample RH (%),Span deviation,Mass concentration (μg/m³),Mass concentration (μg/m³),Mass concentration (μg/m³)
DateTimeUTC,F1_M11,P_M11,Q1_M11,Q2_M11,T1_M11,T2_M11,T3_M11,T4_M11,T5_M11,U1_M11,ZSPAN_M11,X2_M11,X0_M11,X1_M11
2023-05-02 22:00:00,,0828.6,5.00,0.00,29.7,28.3,00.0,38.1,31.2,15.5,0003.5,0011.44,0024.66,0009.61
2023-05-02 22:01:00,,0828.5,5.01,0.00,29.7,28.3,00.0,38.1,31.3,15.5,0003.9,0011.35,0024.72,0009.57
2023-05-02 22:02:00,,0828.5,5.00,0.00,29.7,28.4,00.0,38.1,31.3,15.3,0003.9,0011.28,0025.72,0009.52
2023-05-02 22:03:00,,0828.5,5.00,0.00,29.7,28.4,00.0,38.1,31.3,15.4,0004.2,0011.24,0025.59,0009.46
2023-05-02 22:04:00,,0828.5,5.00,0.00,29.8,28.4,00.0,38.1,31.3,15.3,0004.5,0011.16,0026.15,0009.39
2023-05-02 22:05:00,,0828.4,5.01,0.00,29.8,28.5,00.0,38.2,31.4,15.3,0004.7,0011.08,0027.20,0009.32
2023-05-02 22:06:00,,0828.4,5.00,0.00,29.8,28.5,00.0,38.2,31.4,15.4,0004.8,0010.99,0026.80,0009.22
2023-05-02 22:07:00,,0828.4,4.99,0.00,29.8,28.6,00.0,38.2,31.4,15.2,0004.8,0010.90,0026.14,0009.16
2023-05-02 22:08:00,,0828.4,5.00,0.00,29.9,28.6,00.0,38.2,31.4,15.1,0004.8,0010.81,0025.75,0009.11
2023-05-02 22:09:00,,0828.4,5.01,0.00,29.9,28.7,00.0,38.2,31.5,15.1,0004.6,0010.80,0025.06,0009.04
2023-05-02 22:10:00,,0828.4,5.00,0.00,29.9,28.7,00.0,38.2,31.5,15.1,0004.6,0010.80,0025.46,0008.98
2023-05-02 22:11:00,,0828.4,5.00,0.00,29.9,28.7,00.0,38.3,31.5,15.2,0004.6,0010.79,0026.24,0008.95
2023-05-02 22:12:00,,0828.4,5.00,0.00,30.0,28.8,00.0,38.3,31.5,15.3,0004.6,0010.70,0027.30,0008.86
2023-05-02 22:13:00,,0828.4,4.99,0.00,30.0,28.8,00.0,38.3,31.6,15.3,0004.5,0010.65,0026.62,0008.81
2023-05-02 22:14:00,,0828.4,5.01,0.00,30.0,28.9,00.0,38.3,31.6,15.2,0004.2,0010.62,0026.24,0008.78
2023-05-02 22:15:00,,0828.4,5.01,0.00,30.1,28.9,00.0,38.3,31.7,15.2,0004.1,0010.60,0026.52,0008.74
2023-05-02 22:16:00,,0828.4,5.00,0.00,30.1,29.0,00.0,38.3,31.7,15.1,0004.1,0010.63,0025.85,0008.70
2023-05-02 22:17:00,,0828.4,5.00,0.00,30.1,29.0,00.0,38.4,31.7,15.1,0004.2,0010.71,0026.05,0008.71
2023-05-02 22:18:00,,0828.4,5.00,0.00,30.1,29.0,00.0,38.4,31.7,15.4,0004.0,0010.76,0026.64,0008.72
2023-05-02 22:19:00,,0828.4,4.99,0.00,30.2,29.0,00.0,38.4,31.7,15.5,0003.7,0010.76,0027.25,0008.68
2023-05-02 22:20:00,,0828.4,5.00,0.00,30.2,29.0,00.0,38.4,31.8,15.2,0003.6,0010.73,0027.62,0008.64
2023-05-02 22:21:00,,0828.4,5.01,0.00,30.2,29.1,00.0,38.5,31.8,15.3,0003.5,0010.67,0027.14,0008.62
2023-05-02 22:22:00,,0828.4,5.00,0.00,30.2,29.1,00.0,38.5,31.8,15.3,0003.2,0010.57,0026.23,0008.59
2023-05-02 22:23:00,,0828.4,5.00,0.00,30.2,29.1,00.0,38.5,31.8,15.3,0003.0,0010.54,0026.34,0008.61
2023-05-02 22:24:00,,0828.4,5.00,0.00,30.3,29.1,00.0,38.5,31.9,15.3,0003.3,0010.53,0026.15,0008.63
2023-05-02 22:25:00,,0828.4,5.01,0.00,30.3,29.1,00.0,38.5,31.9,15.4,0003.3,0010.44,0025.86,0008.61
2023-05-02 22:26:00,,0828.4,5.00,0.00,30.3,29.1,00.0,38.6,31.9,15.4,0003.2,0010.40,0026.20,0008.59
2023-05-02 22:27:00,,0828.4,5.00,0.00,30.3,29.1,00.0,38.6,31.9,15.4,0003.1,0010.34,0025.53,0008.57
2023-05-02 22:28:00,,0828.4,4.99,0.00,30.3,29.1,00.0,38.6,31.9,15.6,0003.1,0010.24,0025.13,0008.51
2023-05-02 22:29:00,,0828.4,5.00,0.00,30.4,29.1,00.0,38.6,31.9,15.6,0003.2,0010.20,0025.08,0008.48
2023-05-02 22:30:00,,0828.4,5.01,0.00,30.4,29.1,00.0,38.6,31.9,15.1,0003.6,0010.23,0025.08,0008.49
2023-05-02 22:31:00,,0828.4,5.00,0.00,30.4,29.1,00.0,38.6,31.9,15.1,0003.8,0010.24,0024.52,0008.51
2023-05-02 22:32:00,,0828.4,5.00,0.00,30.4,29.1,00.0,38.7,32.0,15.0,0004.1,0010.19,0024.48,0008.50
2023-05-02 22:33:00,,0828.4,4.99,0.00,30.4,29.1,00.0,38.7,32.0,15.1,0004.4,0010.21,0024.88,0008.51
2023-05-02 22:34:00,,0828.4,5.00,0.00,30.4,29.1,00.0,38.7,32.0,15.3,0004.6,0010.17,0023.60,0008.49
2023-05-02 22:35:00,,0828.4,5.01,0.00,30.4,29.1,00.0,38.7,32.0,15.2,0004.7,0010.17,0022.78,0008.46
2023-05-02 22:36:00,,0828.4,5.00,0.00,30.4,29.1,00.0,38.7,32.0,15.2,0004.8,0010.10,0022.98,0008.41
2023-05-02 22:37:00,,0828.4,5.00,0.00,30.4,29.0,00.0,38.7,32.0,15.4,0004.8,0010.07,0022.73,0008.38
2023-05-02 22:38:00,,0828.4,4.98,0.00,30.4,27.6,00.0,38.6,31.8,15.4,0004.6,0010.03,0022.04,0008.34
2023-05-02 22:39:00,,0828.3,5.03,0.00,30.3,25.9,00.0,38.5,31.4,15.1,0004.5,0010.00,0022.26,0008.31
2023-05-02 22:40:00,,0828.3,5.00,0.00,30.2,25.6,00.0,38.4,31.2,15.2,0004.4,0009.98,0022.71,0008.29
2023-05-02 22:41:00,,0828.3,5.00,0.00,30.1,25.9,00.0,38.5,31.1,15.3,0004.2,0009.89,0022.25,0008.25
2023-05-02 22:42:00,,0828.4,4.99,0.00,30.0,26.3,00.0,38.4,31.1,15.5,0004.1,0009.82,0022.35,0008.19
2023-05-02 22:43:00,,0828.3,5.00,0.00,30.0,26.7,00.0,38.4,31.2,15.5,0003.8,0009.74,0023.23,0008.11
2023-05-02 22:44:00,,0828.4,4.99,0.00,30.0,27.0,00.0,38.4,31.3,15.1,0003.5,0009.68,0023.55,0008.07
2023-05-02 22:45:00,,0828.3,4.99,0.00,29.9,27.4,00.0,38.4,31.3,15.2,0003.5,0009.69,0022.93,0008.06
2023-05-02 22:46:00,,0828.3,5.00,0.00,29.9,27.6,00.0,38.4,31.3,15.1,0003.4,0009.59,0023.04,0008.02
2023-05-02 22:47:00,,0828.3,5.01,0.00,29.9,27.9,00.0,38.4,31.4,15.1,0003.4,0009.61,0023.51,0008.02
2023-05-02 22:48:00,,0828.3,5.00,0.00,30.0,28.0,00.0,38.4,31.5,15.4,0003.6,0009.65,0023.56,0008.02
2023-05-02 22:49:00,,0828.3,5.00,0.00,30.0,28.2,00.0,38.4,31.5,15.6,0003.7,0009.68,0023.42,0008.02
2023-05-02 22:50:00,,0828.3,5.00,0.00,30.0,28.3,00.0,38.4,31.5,15.3,0003.8,0009.66,0023.27,0008.01
2023-05-02 22:51:00,,0828.3,5.00,0.00,30.0,28.4,00.0,38.4,31.6,15.4,0004.0,0009.64,0022.50,0008.00
2023-05-02 22:52:00,,0828.2,4.98,0.00,30.0,28.5,00.0,38.4,31.6,15.4,0004.2,0009.66,0022.10,0008.01
2023-05-02 22:53:00,,0828.2,4.98,0.00,30.0,28.6,00.0,38.4,31.6,15.5,0004.5,0009.67,0022.79,0007.99
2023-05-02 22:54:00,,0828.2,5.01,0.00,30.1,28.7,00.0,38.4,31.6,15.8,0004.8,0009.73,0022.85,0007.98
2023-05-02 22:55:00,,0828.2,5.01,0.00,30.1,28.7,00.0,38.4,31.6,15.5,0004.8,0009.77,0022.74,0007.94
2023-05-02 22:56:00,,0828.2,5.00,0.00,30.1,28.7,00.0,38.4,31.6,15.5,0004.7,0009.75,0022.49,0007.89
2023-05-02 22:57:00,,0828.2,5.01,0.00,30.1,28.8,00.0,38.4,31.7,15.5,0004.7,0009.75,0022.39,0007.84
2023-05-02 22:58:00,,0828.2,5.00,0.00,30.2,28.8,00.0,38.5,31.7,15.3,0004.5,0009.67,0021.97,0007.79
2023-05-02 22:59:00,,0828.3,5.00,0.00,30.2,28.9,00.0,38.5,31.7,15.4,0004.5,0009.56,0021.45,0007.73
